Regional Weather Roundup
Issued by NWS Charleston, SC

Current Version | Previous Version | Graphics & Text | Print | Product List | Glossary On
Versions: 1 2 3 4 5 6 7 8 9 10 11 12 13 14 15 16 17 18 19 20 21 22 23 24 25 26 27 28 29 30 31 32 33 34 35 36 37 38 39 40 41 42 43 44 45 46 47 48 49 50
000 ASUS42 KCHS 051427 RWRCHS REGIONAL WEATHER ROUNDUP NATIONAL WEATHER SERVICE CHARLESTON SC 1000 AM EDT SUN JUL 05 2015 NOTE: "FAIR" INDICATES FEW OR NO CLOUDS BELOW 12,000 FEET WITH NO SIGNIFICANT WEATHER AND/OR OBSTRUCTIONS TO VISIBILITY. NOT ALL STATIONS ARE QUALITY CONTROLLED BY THE NATIONAL WEATHER SERVICE. USE DATA WITH CAUTION...ESPECIALLY DEWPOINT OBSERVATIONS. SCZ027-030-031-034>040-042>050-051500- ...SOUTHEAST SOUTH CAROLINA... CITY SKY/WX TMP DP RH WIND PRES REMARKS N CHARLESTON MOSUNNY 81 70 69 VRB6 30.16S WATERFRONT PAR N/A 80 72 76 VRB3 30.14R MOUNT PLEASANT LGT RAIN 82 70 65 SW7 30.16F JOHNS ISLAND FAIR 84 73 70 VRB6 30.16F HX 91 PINOPOLIS NOT AVBL MONCKS CORNER FAIR 82 70 65 SW5 30.15S SUMMERVILLE FAIR 81 72 74 SW5 30.16S BEAUFORT MCAS MOSUNNY 83 72 69 VRB6 30.16S BEAUFORT ARPT FAIR 82 73 74 SW7 30.15F HAZE HILTON HEAD IS SUNNY 82 72 69 SW9 30.18S WALTERBORO SUNNY 81 70 69 SW7 30.16S ALLENDALE FAIR 82 70 65 VRB3 30.15S ...SOUTHERN MIDLANDS AND PEE DEE... CITY SKY/WX TMP DP RH WIND PRES REMARKS GEORGETOWN NOT AVBL KINGSTREE NOT AVBL ORANGEBURG SUNNY 78 70 76 SW8 30.15S BARNWELL FAIR 82 72 69 SW7 30.16S AIKEN NOT AVBL MANNING FAIR 79 68 69 SW10 30.15S COLUMBIA PTSUNNY 80 69 69 W7 30.13S SUMTER PTSUNNY 78 71 77 S6 30.12S FLORENCE SUNNY 82 70 66 S3 30.13S MYRTLE BEACH SUNNY 84 70 61 SW6 30.17F N MYRTLE BEACH SUNNY 82 70 66 S9 30.16S $$ GAZ063-065-086>088-099>101-113>116-118-119-134>141-150-051500- ...SOUTHEAST GEORGIA... CITY SKY/WX TMP DP RH WIND PRES REMARKS SAVANNAH ARPT MOSUNNY 83 72 69 SW7 30.16S HUNTER AAF SUNNY 82 75 80 SW8 30.14S FORT STEWART SUNNY 82 74 74 S10 30.14F STATESBORO NOT AVBL SYLVANIA SUNNY 82 76 81 W5 30.17S CLAXTON FAIR 82 73 74 SW6 30.16S ...CSRA...CENTRAL AND FAR SOUTHEAST GEORGIA... CITY SKY/WX TMP DP RH WIND PRES REMARKS THOMSON PTSUNNY 80 73 79 W5 30.19S AUGUSTA-BUSH PTSUNNY 80 70 71 CALM 30.14S AUGUSTA-DANIEL PTSUNNY 80 68 66 VRB7 30.15S SWAINSBORO FAIR 81 75 83 SW6 30.17S VIDALIA MOSUNNY 82 72 69 SW5 30.16F EASTMAN FAIR 78 75 92 SW3 30.19S HAZLEHURST FAIR 83 74 73 CALM 30.15S HX 90 ALMA SUNNY 82 74 76 SW7 30.16S WAYCROSS MOSUNNY 86 79 80 SW5 30.16F HX 100 JESUP FAIR 86 77 74 W6 30.17S HX 97 BAXLEY FAIR 82 73 74 SW6 30.16S BRUNSWICK SUNNY 82 72 69 SW8 30.18S SAINT SIMONS SUNNY 81 71 71 SW8 30.18R $$ SCZ027-028-034-036>038-045-046-048>050-GAZ119-141-051500- ...LAKE AND SUPPLEMENTAL COASTAL OBSERVATIONS... STATION/POSITION TIME TEMP WIND PRES WAVE SWELL AIR SEA DIR/SP/G HT/PER HT/PER/DIR (UTC) (F) (DEG/KT/KT) (MB) (FT/S) (FT/S/D) UPR LAKE MARION NOT AVBL WINYAH BAY 1345 80 230/ 5 1020.0S LAKE MURRAY 1300 75 230/ 7/ 10 1019.6S ACE BASIN NERRS 1300 79 N/A FORT PULASKI 1400 81 83 210/ 7/ 9 1021.9S SAPELO ISLAND 1400 82 220/ 5 1022.0S $$ ANZ835-935-AMZ111-154-330-350-352-354-370-450-454-472-051500- ...C-MAN AND BUOY OBSERVATIONS... STATION/POSITION TIME TEMP WIND PRES WAVE SWELL AIR SEA DIR/SP/G HT/PER HT/PER/DIR (UTC) (F) (DEG/KT/KT) (MB) (FT/S) (FT/S/D) BUOY 41004 1350 81 82 220/ 10/ 12 1021.0S 3/ 9 2/ 9 BUOY 41008 1350 78 78 230/ 8/ 8 1021.9R 2/ 8 2/120/ 8 FOLLY BEACH CMAN 1400 81 220/ 10/ 11 1021.4S CAPERS NEARSHORE 1308 81 250/ 12/ 14 1021.5R FRIPP NEARSHORE 1300 82 230/ 10/ 12 1021.1R STATION/POSITION TIME TEMP WIND PRES WAVE SWELL AIR SEA DIR/SP/G HT/PER HT/PER/DIR (UTC) (F) (DEG/KT/KT) (MB) (FT/S) (FT/S/D) 5E ST. MARYS GA 1321 77 N/A 2/ 8 FRYING PAN BUOY 1350 80 78 250/ 8/ 10 1021.8R 3/ 5 2/190/ 5 BUOY 41025 1350 80 81 240/ 16/ 17 1020.6R 4/ 6 2/110/ 9 CAPE LOOKOUT NC 1400 82 230/ 10/ 13 1020.8F BUOY 41002 1350 81 80 230/ 4/ 6 1023.6R 4/ 9 3/130/ 9 BUOY 41010 1320 83 84 160/ 8/ 12 1022.3R ST AUGUSTINE FL 1400 75 72 140/ 7/ 7 1022.8R $$

USA.gov is the U.S. government's official web portal to all federal, state and local government web resources and services.